| time (UTC) | temp F | wind direction | speed MPH | gust MPH | rain 1hr in | rain 24hr in | rain mn in | humidity % | barometer mb |
| 20260506013516 | 68 | 270 | 9.0 | 14.0 | 0.00 | 0.26 | 0.14 | 34 | 1016.6 |
| 20260506012516 | 69 | 270 | 8.0 | 13.0 | 0.00 | 0.26 | 0.14 | 33 | 1016.6 |
| 20260506011516 | 70 | 270 | 9.0 | 14.0 | 0.00 | 0.26 | 0.14 | 31 | 1016.5 |
| 20260506010516 | 70 | 270 | 10.0 | 14.0 | 0.00 | 0.26 | 0.14 | 28 | 1016.4 |
| 20260506005516 | 71 | 248 | 9.0 | 13.0 | 0.00 | 0.26 | 0.14 | 28 | 1016.5 |
| 20260506004516 | 71 | 248 | 10.0 | 14.0 | 0.00 | 0.26 | 0.14 | 29 | 1016.4 |
| 20260506003516 | 71 | 270 | 9.0 | 14.0 | 0.00 | 0.26 | 0.14 | 30 | 1016.4 |
| 20260506002516 | 70 | 248 | 11.0 | 16.0 | 0.00 | 0.26 | 0.14 | 29 | 1016.3 |
| 20260506001516 | 70 | 270 | 10.0 | 18.0 | 0.00 | 0.26 | 0.14 | 29 | 1016.3 |
| 20260506000516 | 71 | 248 | 9.0 | 16.0 | 0.00 | 0.26 | 0.14 | 28 | 1016.6 |
| 20260505235516 | 72 | 248 | 10.0 | 18.0 | 0.00 | 0.26 | 0.14 | 28 | 1016.6 |
| 20260505234516 | 71 | 248 | 10.0 | 18.0 | 0.00 | 0.26 | 0.14 | 27 | 1016.6 |
| 20260505233516 | 72 | 248 | 9.0 | 16.0 | 0.00 | 0.26 | 0.14 | 26 | 1016.8 |
| 20260505232516 | 72 | 248 | 12.0 | 24.0 | 0.00 | 0.26 | 0.14 | 25 | 1016.5 |
| 20260505231516 | 72 | 248 | 13.0 | 23.0 | 0.00 | 0.26 | 0.14 | 25 | 1016.9 |
| 20260505230516 | 72 | 270 | 13.0 | 20.0 | 0.00 | 0.26 | 0.14 | 24 | 1016.6 |
| 20260505225516 | 72 | 270 | 12.0 | 21.0 | 0.00 | 0.26 | 0.14 | 25 | 1016.4 |
| 20260505224516 | 72 | 248 | 13.0 | 21.0 | 0.00 | 0.26 | 0.14 | 31 | 1016.4 |
| 20260505223516 | 72 | 270 | 11.0 | 21.0 | 0.00 | 0.26 | 0.14 | 32 | 1016.4 |
| 20260505222516 | 72 | 248 | 14.0 | 25.0 | 0.00 | 0.26 | 0.14 | 31 | 1016.8 |
| 20260505221516 | 73 | 248 | 14.0 | 23.0 | 0.00 | 0.26 | 0.14 | 33 | 1017.0 |
| 20260505220516 | 72 | 248 | 11.0 | 19.0 | 0.00 | 0.26 | 0.14 | 34 | 1016.8 |
| 20260505215516 | 73 | 248 | 11.0 | 18.0 | 0.00 | 0.26 | 0.14 | 34 | 1017.0 |
| 20260505214516 | 72 | 248 | 13.0 | 21.0 | 0.00 | 0.26 | 0.14 | 35 | 1017.1 |
| 20260505213516 | 72 | 225 | 9.0 | 14.0 | 0.00 | 0.26 | 0.14 | 38 | 1017.2 |
| 20260505212516 | 72 | 248 | 13.0 | 20.0 | 0.00 | 0.26 | 0.14 | 36 | 1017.4 |
| 20260505211516 | 72 | 248 | 10.0 | 17.0 | 0.00 | 0.26 | 0.14 | 35 | 1017.3 |
| 20260505210516 | 72 | 248 | 7.0 | 14.0 | 0.00 | 0.26 | 0.14 | 37 | 1017.2 |
| 20260505205516 | 73 | 225 | 8.0 | 19.0 | 0.00 | 0.26 | 0.14 | 34 | 1017.3 |
| 20260505204516 | 71 | 248 | 8.0 | 17.0 | 0.00 | 0.26 | 0.14 | 37 | 1017.6 |
| 20260505203516 | 70 | 225 | 9.0 | 21.0 | 0.00 | 0.26 | 0.14 | 38 | 1017.6 |
| 20260505202516 | 70 | 270 | 9.0 | 16.0 | 0.00 | 0.26 | 0.14 | 40 | 1017.6 |
| 20260505201516 | 71 | 270 | 13.0 | 26.0 | 0.00 | 0.26 | 0.14 | 40 | 1018.1 |
| 20260505200516 | 71 | 225 | 9.0 | 16.0 | 0.00 | 0.26 | 0.14 | 39 | 1018.0 |
| 20260505195516 | 70 | 248 | 13.0 | 20.0 | 0.00 | 0.26 | 0.14 | 42 | 1017.9 |
| 20260505194516 | 70 | 270 | 10.0 | 18.0 | 0.00 | 0.26 | 0.14 | 43 | 1018.0 |
| 20260505193516 | 70 | 248 | 9.0 | 18.0 | 0.00 | 0.26 | 0.14 | 44 | 1018.0 |
| 20260505192516 | 70 | 248 | 10.0 | 17.0 | 0.00 | 0.26 | 0.14 | 41 | 1018.0 |
| 20260505191516 | 70 | 225 | 8.0 | 14.0 | 0.00 | 0.26 | 0.14 | 44 | 1018.1 |
| 20260505190516 | 69 | 248 | 12.0 | 24.0 | 0.00 | 0.26 | 0.14 | 47 | 1018.4 |
| 20260505185516 | 68 | 248 | 10.0 | 17.0 | 0.00 | 0.26 | 0.14 | 48 | 1018.2 |
| 20260505184516 | 68 | 248 | 11.0 | 19.0 | 0.00 | 0.26 | 0.14 | 48 | 1018.4 |
| 20260505183516 | 68 | 248 | 6.0 | 15.0 | 0.00 | 0.26 | 0.14 | 47 | 1018.7 |
| 20260505182516 | 67 | 225 | 4.0 | 12.0 | 0.00 | 0.26 | 0.14 | 53 | 1018.8 |
| 20260505181516 | 67 | 248 | 8.0 | 14.0 | 0.00 | 0.26 | 0.14 | 54 | 1019.1 |
| 20260505180516 | 67 | 225 | 7.0 | 14.0 | 0.01 | 0.26 | 0.14 | 54 | 1018.9 |
| 20260505175516 | 67 | 248 | 7.0 | 17.0 | 0.01 | 0.26 | 0.14 | 54 | 1018.8 |
| 20260505174516 | 66 | 248 | 8.0 | 13.0 | 0.01 | 0.26 | 0.14 | 56 | 1018.9 |
| 20260505173516 | 66 | 248 | 5.0 | 13.0 | 0.01 | 0.26 | 0.14 | 57 | 1019.0 |
| 20260505172515 | 65 | 248 | 8.0 | 16.0 | 0.01 | 0.26 | 0.14 | 56 | 1019.0 |
| 20260505171516 | 65 | 225 | 5.0 | 12.0 | 0.01 | 0.26 | 0.14 | 60 | 1019.0 |
| 20260505170516 | 65 | 225 | 4.0 | 10.0 | 0.00 | 0.25 | 0.13 | 60 | 1019.0 |
| 20260505165515 | 64 | 225 | 5.0 | 11.0 | 0.00 | 0.25 | 0.13 | 62 | 1018.9 |
| 20260505164515 | 63 | 225 | 2.0 | 6.0 | 0.00 | 0.25 | 0.13 | 68 | 1018.8 |
| 20260505163515 | 62 | 248 | 4.0 | 9.0 | 0.00 | 0.25 | 0.13 | 68 | 1018.7 |
| 20260505162515 | 62 | 225 | 4.0 | 13.0 | 0.00 | 0.25 | 0.13 | 68 | 1018.5 |
| 20260505161515 | 62 | 225 | 5.0 | 11.0 | 0.00 | 0.25 | 0.13 | 67 | 1018.3 |
| 20260505160517 | 61 | 135 | 3.0 | 8.0 | 0.00 | 0.25 | 0.13 | 68 | 1018.5 |
| 20260505152517 | 60 | 248 | 3.0 | 7.0 | 0.00 | 0.25 | 0.13 | 72 | 1018.0 |
| 20260505151517 | 60 | 270 | 5.0 | 7.0 | 0.00 | 0.25 | 0.13 | 71 | 1017.9 |
| 20260505150517 | 60 | 225 | 2.0 | 4.0 | 0.00 | 0.25 | 0.13 | 70 | 1017.8 |
| 20260505140518 | 59 | 90 | 4.0 | 7.0 | 0.00 | 0.25 | 0.13 | 73 | 1018.2 |
| 20260505124517 | 58 | 135 | 3.0 | 6.0 | 0.01 | 0.24 | 0.12 | 74 | 1017.5 |
| 20260505123517 | 58 | 135 | 2.0 | 6.0 | 0.01 | 0.24 | 0.12 | 75 | 1017.3 |
| 20260505122517 | 58 | 90 | 5.0 | 9.0 | 0.01 | 0.24 | 0.12 | 76 | 1017.1 |
| 20260505121517 | 57 | 158 | 2.0 | 6.0 | 0.02 | 0.24 | 0.12 | 77 | 1017.3 |
| 20260505120517 | 57 | 45 | 2.0 | 6.0 | 0.02 | 0.24 | 0.12 | 80 | 1017.0 |
| 20260505115517 | 57 | 0.0 | 1.0 | 0.01 | 0.23 | 0.11 | 81 | 1017.9 | |
| 20260505114517 | 57 | 225 | 1.0 | 4.0 | 0.01 | 0.23 | 0.11 | 77 | 1018.0 |
| 20260505113517 | 57 | 293 | 1.0 | 4.0 | 0.01 | 0.23 | 0.11 | 75 | 1018.1 |
| 20260505112517 | 58 | 225 | 1.0 | 3.0 | 0.01 | 0.23 | 0.11 | 75 | 1018.7 |
| 20260505111517 | 58 | 248 | 1.0 | 4.0 | 0.00 | 0.22 | 0.10 | 75 | 1018.8 |
| 20260505110517 | 58 | 0.0 | 1.0 | 0.01 | 0.22 | 0.10 | 79 | 1018.3 | |
| 20260505101517 | 57 | 90 | 2.0 | 4.0 | 0.04 | 0.22 | 0.10 | 76 | 1019.4 |
| 20260505100517 | 57 | 90 | 3.0 | 6.0 | 0.03 | 0.21 | 0.09 | 76 | 1019.7 |
| 20260505095517 | 58 | 90 | 2.0 | 4.0 | 0.02 | 0.20 | 0.08 | 78 | 1020.0 |
| 20260505094517 | 58 | 90 | 4.0 | 7.0 | 0.02 | 0.19 | 0.07 | 77 | 1020.2 |
| 20260505093517 | 58 | 90 | 5.0 | 9.0 | 0.02 | 0.19 | 0.07 | 78 | 1020.2 |
| 20260505092517 | 57 | 90 | 4.0 | 8.0 | 0.02 | 0.19 | 0.07 | 80 | 1020.4 |
| 20260505091517 | 58 | 90 | 4.0 | 9.0 | 0.02 | 0.18 | 0.06 | 80 | 1020.9 |
| 20260505090517 | 57 | 90 | 4.0 | 7.0 | 0.04 | 0.18 | 0.06 | 81 | 1020.8 |
| 20260505085517 | 57 | 113 | 2.0 | 6.0 | 0.05 | 0.18 | 0.06 | 81 | 1021.0 |
| 20260505084517 | 58 | 90 | 4.0 | 8.0 | 0.04 | 0.17 | 0.05 | 81 | 1021.3 |
| 20260505083516 | 57 | 113 | 4.0 | 8.0 | 0.05 | 0.17 | 0.05 | 81 | 1021.2 |
| 20260505082516 | 58 | 90 | 4.0 | 7.0 | 0.04 | 0.16 | 0.04 | 80 | 1021.6 |
| 20260505081516 | 58 | 113 | 4.0 | 7.0 | 0.04 | 0.16 | 0.04 | 77 | 1021.9 |
| 20260505080516 | 58 | 113 | 3.0 | 7.0 | 0.02 | 0.14 | 0.02 | 75 | 1022.0 |
| 20260505075516 | 59 | 158 | 2.0 | 5.0 | 0.02 | 0.13 | 0.01 | 74 | 1022.2 |
| 20260505074516 | 59 | 113 | 3.0 | 7.0 | 0.02 | 0.13 | 0.01 | 73 | 1022.2 |
| 20260505073516 | 59 | 113 | 1.0 | 3.0 | 0.02 | 0.12 | 0.00 | 75 | 1022.1 |
| 20260505072516 | 59 | 90 | 2.0 | 3.0 | 0.03 | 0.12 | 0.00 | 76 | 1021.8 |
| 20260505071516 | 59 | 113 | 3.0 | 4.0 | 0.04 | 0.12 | 0.00 | 76 | 1021.8 |
| 20260505070517 | 58 | 90 | 2.0 | 3.0 | 0.04 | 0.12 | 0.00 | 79 | 1021.5 |
| 20260505065517 | 59 | 113 | 3.0 | 6.0 | 0.03 | 0.11 | 0.11 | 74 | 1021.9 |
| 20260505064517 | 59 | 135 | 3.0 | 5.0 | 0.03 | 0.11 | 0.11 | 75 | 1022.1 |
| 20260505063517 | 59 | 0.0 | 1.0 | 0.02 | 0.10 | 0.10 | 77 | 1021.9 | |
| 20260505062517 | 59 | 90 | 2.0 | 4.0 | 0.02 | 0.09 | 0.09 | 76 | 1021.7 |
| 20260505061517 | 60 | 135 | 4.0 | 8.0 | 0.01 | 0.08 | 0.08 | 69 | 1021.8 |
| 20260505060517 | 60 | 90 | 4.0 | 6.0 | 0.01 | 0.08 | 0.08 | 70 | 1021.3 |
| 20260505055517 | 60 | 113 | 3.0 | 5.0 | 0.01 | 0.08 | 0.08 | 72 | 1021.6 |
| 20260505054517 | 60 | 90 | 4.0 | 6.0 | 0.01 | 0.08 | 0.08 | 70 | 1021.7 |
| 20260505053517 | 60 | 113 | 4.0 | 8.0 | 0.01 | 0.08 | 0.08 | 69 | 1021.8 |
| 20260505052517 | 61 | 113 | 3.0 | 7.0 | 0.00 | 0.07 | 0.07 | 65 | 1022.0 |
| 20260505051517 | 61 | 135 | 2.0 | 5.0 | 0.00 | 0.07 | 0.07 | 63 | 1021.9 |
| 20260505050517 | 62 | 90 | 2.0 | 4.0 | 0.00 | 0.07 | 0.07 | 62 | 1021.8 |
| 20260505041516 | 62 | 90 | 4.0 | 10.0 | 0.00 | 0.07 | 0.07 | 62 | 1021.6 |
| 20260505040516 | 61 | 113 | 8.0 | 14.0 | 0.00 | 0.07 | 0.07 | 61 | 1021.3 |
| 20260505035516 | 61 | 90 | 5.0 | 13.0 | 0.02 | 0.07 | 0.07 | 60 | 1021.3 |
| 20260505034516 | 61 | 113 | 6.0 | 14.0 | 0.02 | 0.07 | 0.07 | 57 | 1021.3 |
| 20260505033516 | 61 | 135 | 5.0 | 12.0 | 0.03 | 0.07 | 0.07 | 57 | 1021.5 |
| 20260505032517 | 61 | 135 | 6.0 | 13.0 | 0.03 | 0.07 | 0.07 | 58 | 1021.8 |
| 20260505031516 | 60 | 90 | 7.0 | 13.0 | 0.04 | 0.07 | 0.07 | 69 | 1021.8 |
| 20260505030516 | 59 | 90 | 9.0 | 13.0 | 0.06 | 0.07 | 0.07 | 73 | 1021.6 |
| 20260505025516 | 60 | 90 | 7.0 | 11.0 | 0.05 | 0.05 | 0.05 | 72 | 1021.7 |
| 20260505024516 | 60 | 90 | 5.0 | 8.0 | 0.05 | 0.05 | 0.05 | 71 | 1021.7 |
| 20260505023516 | 60 | 90 | 6.0 | 11.0 | 0.04 | 0.04 | 0.04 | 71 | 1021.1 |
| 20260505022517 | 60 | 90 | 6.0 | 10.0 | 0.04 | 0.04 | 0.04 | 71 | 1021.4 |
| 20260505021516 | 60 | 90 | 5.0 | 8.0 | 0.03 | 0.03 | 0.03 | 68 | 1021.5 |
| 20260505020516 | 62 | 113 | 5.0 | 10.0 | 0.01 | 0.01 | 0.01 | 61 | 1021.6 |
| 20260505015516 | 63 | 90 | 4.0 | 7.0 | 0.00 | 0.00 | 0.00 | 56 | 1021.3 |
| 20260505014516 | 65 | 180 | 3.0 | 7.0 | 0.00 | 0.00 | 0.00 | 46 | 1021.2 |